Location: Unspecified
(0.0000°N, 0.0000°E)
Time: 14:06:13
(UTC+00:00)

Amateur Radio Satellites - All Passes

Search period start: 21 October 2017 13:36
Search period end: 22 October 2017 13:36
Location: Unspecified, 0.0000°N, 0.0000°E

Satellite Date Start Highest point End Downlink Frequencies (MHz)
Time Altitude Azimuth
DX 1 21 Oct 13:38:14 13:42:24 45° 282° (WNW) 13:46:36 434.975-435.025
50 SAT 21 Oct 13:57:20 13:58:15 11° 282° (WNW) 13:59:10 437.505
UKube-1 21 Oct 14:00:25 14:04:25 39° 282° (WNW) 14:08:28 .
M-CUBED/EXP-1 PRIME 21 Oct 14:07:09 14:09:12 14° 252° (WSW) 14:11:12 437.505
BEESAT 21 Oct 14:08:35 14:11:36 17° 103° (ESE) 14:14:37 436.000
Oscar 19 21 Oct 14:30:44 14:32:05 11° 257° (WSW) 14:33:25 437.125/150
JUGNU 21 Oct 14:41:19 14:46:33 33° 199° (SSW) 14:51:50 437.505
MOZHAYETS 4 21 Oct 14:50:59 14:55:31 77° 101° (E) 15:00:04
AO-7 21 Oct 15:00:41 15:09:00 72° 74° (ENE) 15:17:14 .
ITAMSAT 1 21 Oct 15:01:56 15:06:57 51° 77° (ENE) 15:11:57 435.822/435.867
CUBESAT XI-V 21 Oct 15:06:25 15:09:18 16° 102° (ESE) 15:12:11 437.345
SRMSAT 21 Oct 15:16:18 15:22:15 70° 21° (NNE) 15:28:15 437.500
ITUPSAT 1 21 Oct 15:29:52 15:34:17 39° 283° (WNW) 15:38:43 437.325
SO-50 21 Oct 15:41:52 15:45:25 21° 68° (ENE) 15:48:59 436.795
BEESAT 21 Oct 15:45:16 15:49:05 24° 282° (WNW) 15:52:56 436.000
KKS-1 21 Oct 16:11:31 16:15:10 25° 102° (ESE) 16:18:51 437.445
JUGNU 21 Oct 16:32:44 16:36:06 15° 192° (SSW) 16:39:28 437.505
STARS 21 Oct 16:41:41 16:44:56 20° 102° (ESE) 16:48:09 437.465
CUBESAT XI-V 21 Oct 16:42:44 16:46:23 23° 282° (WNW) 16:50:04 437.345
AO-7 21 Oct 16:57:41 17:01:17 13° 252° (WSW) 17:04:52 .
DOVE 4 21 Oct 17:02:33 17:06:39 60° 258° (WSW) 17:10:43 437.250
SRMSAT 21 Oct 17:05:50 17:11:31 43° 200° (SSW) 17:17:12 437.500
KAITUO 1B 21 Oct 17:09:20 17:11:20 14° 79° (E) 17:13:18 145.475/437.950
XW-2F 21 Oct 17:12:01 17:15:00 22° 79° (E) 17:17:57 145.980 - 146.000
LilacSat-2 21 Oct 17:19:00 17:22:32 34° 79° (E) 17:26:02 437.200
CUTE-I 21 Oct 17:19:04 17:23:31 28° 77° (ENE) 17:27:58 437.470
NUDT-PHONESAT 21 Oct 17:20:51 17:23:39 20° 79° (E) 17:26:26 437.300
SO-50 21 Oct 17:22:10 17:25:38 20° 247° (WSW) 17:29:07 436.795
XW-2D 21 Oct 17:24:39 17:28:16 40° 79° (E) 17:31:51 145.860 - 145.880
HO-68 21 Oct 17:37:55 17:42:19 17° 75° (ENE) 17:46:41 435.675
XW-2B 21 Oct 17:37:57 17:41:45 64° 80° (E) 17:45:31 145.730 - 145.750
ISS 21 Oct 17:43:35 17:46:00 19° 54° (NE) 17:48:25 437.550
KKS-1 21 Oct 17:49:03 17:51:27 14° 282° (WNW) 17:53:51 437.445
O/OREOS (USA 219) 21 Oct 17:50:34 17:52:11 12° 105° (ESE) 17:53:47 437.305
XW-2C 21 Oct 18:01:19 18:05:02 48° 259° (W) 18:08:43 145.795 - 145.815
STRAND 1 21 Oct 18:01:49 18:03:38 12° 103° (ESE) 18:05:26 437.568
PCSat 21 Oct 18:14:48 18:20:12 83° 251° (WSW) 18:25:35 145.827
STARS 21 Oct 18:18:03 18:20:58 17° 283° (WNW) 18:23:54 437.465
XW-2A 21 Oct 18:37:35 18:39:11 13° 79° (E) 18:40:48 145.665 - 145.685
KAITUO 1B 21 Oct 18:42:34 18:45:02 17° 258° (WSW) 18:47:29 145.475/437.950
nSIGHT-1 21 Oct 18:43:28 18:46:23 32° 234° (SW) 18:49:18 .
XW-2F 21 Oct 18:47:51 18:48:49 11° 258° (WSW) 18:49:47 145.980 - 146.000
CUBEBUG 2 21 Oct 18:51:32 18:55:53 49° 78° (ENE) 19:00:19 437.445
NUDT-PHONESAT 21 Oct 18:56:03 18:57:13 11° 258° (WSW) 18:58:23 437.300
SRMSAT 21 Oct 18:57:01 19:01:06 19° 195° (SSW) 19:05:11 437.500
CUTE-I 21 Oct 18:59:39 19:03:17 19° 257° (WSW) 19:06:54 437.470
FO-29 21 Oct 19:03:26 19:06:05 12° 104° (ESE) 19:08:44 435.910
ZACube-1 21 Oct 19:03:45 19:06:27 16° 78° (ENE) 19:09:07 437.345
CUTE 1.7 + AOD 2 21 Oct 19:15:37 19:19:29 33° 259° (WSW) 19:23:18 437.475
SEEDS 21 Oct 19:20:09 19:24:17 54° 258° (WSW) 19:28:22 437.485
ISS 21 Oct 19:20:43 19:22:16 13° 234° (SW) 19:23:48 437.550
HO-68 21 Oct 19:22:50 19:29:41 50° 255° (WSW) 19:36:32 435.675
UWE-3 21 Oct 19:26:57 19:31:27 77° 79° (E) 19:36:04 435.000/436.395/437.385
O/OREOS (USA 219) 21 Oct 19:27:25 19:31:18 28° 284° (WNW) 19:35:12 437.305
STRAND 1 21 Oct 19:37:45 19:42:30 40° 283° (WNW) 19:47:17 437.568
Oscar 11 21 Oct 19:37:46 19:41:14 23° 79° (ENE) 19:44:41 .
AAUSAT CUBESAT 2 21 Oct 19:40:21 19:44:29 83° 256° (WSW) 19:48:36 437.432
YUBILEINY 21 Oct 20:08:39 20:17:19 60° 87° (E) 20:25:58 435.215
XW-2A 21 Oct 20:09:46 20:11:37 14° 258° (WSW) 20:13:29 145.665 - 145.685
JUGNU 21 Oct 20:14:07 20:16:24 12° 172° (S) 20:18:40 437.505
AO-73 21 Oct 20:15:10 20:19:36 58° 259° (WSW) 20:24:04 145.935
ZACube-1 21 Oct 20:38:47 20:42:25 24° 259° (WSW) 20:46:05 437.345
FO-29 21 Oct 20:42:53 20:50:34 79° 283° (WNW) 20:58:27 435.910
SRMSAT 21 Oct 20:49:55 20:51:14 11° 185° (S) 20:52:32 437.500
UNISAT 6 21 Oct 20:50:20 20:53:45 22° 101° (ESE) 20:57:07 437.425
BEESAT 3 21 Oct 20:51:51 20:53:48 14° 68° (ENE) 20:55:44 437.485
DELFI C3 21 Oct 20:56:56 21:00:39 43° 79° (E) 21:04:21 145.870
TIGRISAT 21 Oct 21:04:17 21:08:11 31° 101° (ESE) 21:12:01 435.000
Oscar 11 21 Oct 21:14:45 21:17:05 14° 258° (WSW) 21:19:23 .
EO-88 21 Oct 21:22:02 21:25:33 44° 79° (E) 21:29:02 145.990 - 145.960
PRISM 21 Oct 21:31:22 21:34:55 28° 102° (ESE) 21:38:29 437.425
Max Valier Satellite 21 Oct 21:34:36 21:38:19 66° 259° (WSW) 21:42:01 145.860
RS-15 21 Oct 21:41:11 21:52:02 42° 111° (ESE) 22:03:10 29.354- 29.394
JUGNU 21 Oct 22:01:30 22:06:12 23° 163° (SSE) 22:10:54 437.505
LO-87 21 Oct 22:08:39 22:10:46 15° 79° (ENE) 22:12:53 145.935 - 145.965
YUBILEINY 21 Oct 22:08:50 22:13:42 16° 267° (W) 22:18:37 435.215
BEESAT 2 21 Oct 22:13:52 22:17:37 44° 68° (ENE) 22:21:20 435.950
UNISAT 6 21 Oct 22:27:36 22:30:10 15° 283° (WNW) 22:32:43 437.425
BEESAT 3 21 Oct 22:28:25 22:31:04 18° 248° (WSW) 22:33:43 437.485
SRMSAT 21 Oct 22:40:13 22:41:38 11° 174° (S) 22:43:02 437.500
AO-85 21 Oct 22:42:01 22:47:05 73° 69° (ENE) 22:52:24 145.980
TIGRISAT 21 Oct 22:43:42 22:44:34 10° 283° (WNW) 22:45:25 435.000
EO-79 21 Oct 23:05:54 23:09:36 30° 102° (ESE) 23:13:17 145.935-145.965
PRISM 21 Oct 23:08:59 23:09:54 11° 282° (WNW) 23:10:51 437.425
POLYITAN 1 21 Oct 23:10:53 23:14:43 35° 102° (ESE) 23:18:34 437.675
ESTCUBE 1 21 Oct 23:26:31 23:30:55 53° 258° (WSW) 23:35:18 437.505/2401.250
AIST 2D 21 Oct 23:29:31 23:32:13 21° 281° (W) 23:34:55 435.315
QB50P2 21 Oct 23:30:52 23:35:06 85° 105° (ESE) 23:39:19 145.880/145.840
NANOSAT C BR1 21 Oct 23:32:41 23:36:51 66° 102° (ESE) 23:41:00 145.865
LO-87 21 Oct 23:42:09 23:43:54 13° 259° (WSW) 23:45:38 145.935 - 145.965
DUCHIFAT 1 21 Oct 23:42:36 23:46:46 79° 102° (ESE) 23:50:56 145.980
BUGSAT 1 21 Oct 23:46:56 23:48:56 13° 102° (ESE) 23:50:55 437.445
JUGNU 21 Oct 23:49:34 23:55:28 58° 159° (SSE) 00:01:22 437.505
SPROUT 21 Oct 23:50:28 23:54:36 52° 79° (ENE) 23:58:45 437.525
RS-15 21 Oct 23:53:28 00:04:04 38° 292° (WNW) 00:15:01 29.354- 29.394
NO-84 21 Oct 23:59:09 00:03:06 66° 302° (WNW) 00:07:16 435.350 FM
SRMSAT 22 Oct 00:27:35 00:31:44 19° 165° (SSE) 00:35:51 437.500
Gurwin Techsat 1B 22 Oct 00:27:39 00:30:29 15° 103° (ESE) 00:33:19 435.225
M-CUBED/EXP-1 PRIME 22 Oct 00:30:07 00:32:58 18° 107° (ESE) 00:35:57 437.505
UKube-1 22 Oct 00:36:03 00:37:01 11° 78° (ENE) 00:38:00 .
VELOX 1 22 Oct 00:46:27 00:50:32 39° 258° (WSW) 00:54:36 145.980
BUGSAT 1 22 Oct 01:20:50 01:24:01 22° 282° (WNW) 01:27:11 437.445
Oscar 19 22 Oct 01:21:31 01:26:37 72° 282° (WNW) 01:31:44 437.125/150
50 SAT 22 Oct 01:35:04 01:37:43 24° 258° (WSW) 01:40:24 437.505
JUGNU 22 Oct 01:38:45 01:44:33 51° 339° (NNW) 01:50:19 437.505
AO-7 22 Oct 01:39:29 01:42:56 13° 108° (ESE) 01:46:25 .
DX 1 22 Oct 01:48:06 01:51:58 32° 258° (WSW) 01:55:50 434.975-435.025
M-CUBED/EXP-1 PRIME 22 Oct 02:04:11 02:07:05 19° 284° (WNW) 02:10:06 437.505
Gurwin Techsat 1B 22 Oct 02:05:21 02:10:08 35° 283° (WNW) 02:14:57 435.225
UKube-1 22 Oct 02:09:02 02:12:46 29° 258° (WSW) 02:16:30 .
ITUPSAT 1 22 Oct 02:15:25 02:18:58 21° 77° (ENE) 02:22:29 437.325
SRMSAT 22 Oct 02:15:36 02:21:16 45° 160° (SSE) 02:26:54 437.500
BEESAT 22 Oct 02:29:09 02:33:24 32° 78° (ENE) 02:37:38 436.000
MOZHAYETS 4 22 Oct 03:07:35 03:12:11 63° 258° (WSW) 03:16:45
CUBESAT XI-V 22 Oct 03:23:35 03:27:36 29° 78° (ENE) 03:31:34 437.345
AO-7 22 Oct 03:26:57 03:35:13 74° 286° (WNW) 03:43:33 .
JUGNU 22 Oct 03:29:30 03:33:52 21° 344° (NNW) 03:38:12 437.505
ITAMSAT 1 22 Oct 03:36:45 03:41:52 59° 283° (WNW) 03:47:01 435.822/435.867
DOVE 4 22 Oct 03:46:48 03:49:35 14° 102° (ESE) 03:52:22 437.250
ITUPSAT 1 22 Oct 03:52:58 03:56:30 21° 257° (WSW) 04:00:02 437.325
SO-50 22 Oct 03:54:01 03:58:12 36° 112° (ESE) 04:02:19 436.795
SRMSAT 22 Oct 04:04:36 04:10:29 66° 339° (NNW) 04:16:21 437.500
BEESAT 22 Oct 04:08:47 04:10:53 13° 257° (WSW) 04:12:59 436.000
KKS-1 22 Oct 04:23:30 04:27:34 36° 78° (ENE) 04:31:36 437.445
STARS 22 Oct 04:51:54 04:55:37 27° 78° (ENE) 04:59:18 437.465
CUBESAT XI-V 22 Oct 05:02:24 05:04:40 14° 258° (WSW) 05:06:57 437.345
XW-2F 22 Oct 05:05:27 05:07:51 17° 102° (ESE) 05:10:17 145.980 - 146.000
PCSat 22 Oct 05:09:19 05:13:14 20° 110° (ESE) 05:17:08 145.827
NUDT-PHONESAT 22 Oct 05:12:36 05:14:35 14° 102° (ESE) 05:16:34 437.300
LilacSat-2 22 Oct 05:13:24 05:16:37 27° 101° (ESE) 05:19:52 437.200
XW-2D 22 Oct 05:18:16 05:21:35 30° 101° (ESE) 05:24:56 145.860 - 145.880
ISS 22 Oct 05:18:35 05:19:54 12° 126° (SE) 05:21:13 437.550
DOVE 4 22 Oct 05:22:07 05:26:56 37° 282° (WNW) 05:31:47 437.250
JUGNU 22 Oct 05:22:09 05:23:42 11° 353° (N) 05:25:15 437.505
HO-68 22 Oct 05:30:25 05:33:53 14° 105° (ESE) 05:37:19 435.675
XW-2B 22 Oct 05:31:29 05:35:06 48° 102° (ESE) 05:38:44 145.730 - 145.750
CUTE 1.7 + AOD 2 22 Oct 05:48:44 05:49:59 11° 102° (ESE) 05:51:14 437.475
XW-2C 22 Oct 05:54:43 05:58:24 62° 281° (W) 06:02:08 145.795 - 145.815
SRMSAT 22 Oct 05:55:01 05:59:50 25° 342° (NNW) 06:04:38 437.500
CUTE-I 22 Oct 05:57:23 06:02:45 83° 103° (ESE) 06:08:08 437.470
O/OREOS (USA 219) 22 Oct 05:59:51 06:03:13 20° 75° (ENE) 06:06:34 437.305
nSIGHT-1 22 Oct 06:15:46 06:18:55 59° 305° (NW) 06:22:04 .
STARS 22 Oct 06:29:56 06:31:40 12° 257° (WSW) 06:33:23 437.465
STRAND 1 22 Oct 06:31:44 06:36:10 30° 77° (ENE) 06:40:36 437.568
KAITUO 1B 22 Oct 06:34:01 06:36:54 22° 281° (W) 06:39:48 145.475/437.950
XW-2F 22 Oct 06:39:49 06:41:42 14° 281° (W) 06:43:36 145.980 - 146.000
NUDT-PHONESAT 22 Oct 06:46:01 06:48:10 15° 281° (W) 06:50:19 437.300
PCSat 22 Oct 06:51:53 06:56:21 26° 289° (WNW) 07:00:48 145.827
YUBILEINY 22 Oct 06:52:02 06:54:27 11° 93° (E) 06:56:53 435.215
ISS 22 Oct 06:53:44 06:56:10 20° 306° (NW) 06:58:36 437.550
CUBEBUG 2 22 Oct 07:04:05 07:08:28 74° 101° (E) 07:12:44 437.445
ZACube-1 22 Oct 07:13:14 07:16:11 19° 101° (ESE) 07:19:06 437.345
HO-68 22 Oct 07:14:12 07:21:13 60° 284° (WNW) 07:28:17 435.675
CUTE 1.7 + AOD 2 22 Oct 07:21:58 07:25:32 27° 281° (W) 07:29:07 437.475
SEEDS 22 Oct 07:25:11 07:29:10 45° 281° (WNW) 07:33:13 437.485
UWE-3 22 Oct 07:38:27 07:42:43 73° 281° (W) 07:46:53 435.000/436.395/437.385
O/OREOS (USA 219) 22 Oct 07:39:24 07:42:20 17° 255° (WSW) 07:45:16 437.305
AAUSAT CUBESAT 2 22 Oct 07:43:30 07:47:37 74° 282° (WNW) 07:51:47 437.432
Oscar 11 22 Oct 07:45:59 07:49:44 30° 102° (ESE) 07:53:32 .
SRMSAT 22 Oct 07:47:15 07:49:41 12° 350° (N) 07:52:07 437.500
XW-2A 22 Oct 07:50:58 07:53:47 26° 281° (W) 07:56:38 145.665 - 145.685
STRAND 1 22 Oct 08:12:02 08:15:04 16° 257° (WSW) 08:18:06 437.568
FO-29 22 Oct 08:18:24 08:23:31 53° 78° (ENE) 08:28:33 435.910
AO-73 22 Oct 08:25:06 08:29:00 39° 282° (WNW) 08:32:53 145.935
YUBILEINY 22 Oct 08:42:13 08:50:53 74° 273° (W) 08:59:32 435.215
BEESAT 3 22 Oct 08:42:57 08:45:02 14° 112° (ESE) 08:47:07 437.485
ZACube-1 22 Oct 08:49:39 08:52:11 16° 282° (WNW) 08:54:43 437.345
DELFI C3 22 Oct 08:54:43 08:58:28 40° 101° (ESE) 09:02:14 145.870
JUGNU 22 Oct 09:00:21 09:03:53 16° 13° (NNE) 09:07:24 437.505
UNISAT 6 22 Oct 09:02:31 09:06:38 34° 78° (ENE) 09:10:48 437.425
EO-88 22 Oct 09:11:45 09:14:55 29° 101° (ESE) 09:18:06 145.990 - 145.960
TIGRISAT 22 Oct 09:16:31 09:20:53 48° 78° (ENE) 09:25:19 435.000
Oscar 11 22 Oct 09:25:01 09:25:36 10° 282° (WNW) 09:26:12 .
RS-15 22 Oct 09:25:11 09:34:54 33° 68° (ENE) 09:44:14 29.354- 29.394
Max Valier Satellite 22 Oct 09:25:23 09:29:01 84° 97° (E) 09:32:40 145.860
PRISM 22 Oct 09:33:52 09:37:25 29° 78° (ENE) 09:40:54 437.425
BEESAT 2 22 Oct 10:06:26 10:10:11 46° 111° (ESE) 10:13:58 435.950
ESTCUBE 1 22 Oct 10:07:27 10:08:16 10° 103° (ESE) 10:09:04 437.505/2401.250
BEESAT 3 22 Oct 10:19:27 10:22:18 19° 292° (WNW) 10:25:11 437.485
UNISAT 6 22 Oct 10:42:13 10:43:04 10° 258° (WSW) 10:43:56 437.425
JUGNU 22 Oct 10:47:57 10:53:19 37° 20° (NNE) 10:58:41 437.505
AO-85 22 Oct 10:56:15 11:00:14 55° 292° (WNW) 11:04:03 145.980
EO-79 22 Oct 11:11:36 11:15:30 36° 78° (ENE) 11:19:25 145.935-145.965
AIST 2D 22 Oct 11:14:42 11:18:00 37° 259° (W) 11:21:16 435.315
POLYITAN 1 22 Oct 11:16:45 11:20:48 44° 78° (ENE) 11:24:52 437.675
VELOX 1 22 Oct 11:23:44 11:25:40 13° 103° (ESE) 11:27:37 145.980
SRMSAT 22 Oct 11:27:15 11:30:17 14° 11° (NNE) 11:33:19 437.500
LO-87 22 Oct 11:28:48 11:31:32 21° 281° (W) 11:34:16 145.935 - 145.965
RS-15 22 Oct 11:36:34 11:46:47 42° 249° (WSW) 11:56:48 29.354- 29.394
QB50P2 22 Oct 11:36:59 11:41:14 78° 260° (W) 11:45:29 145.880/145.840
NANOSAT C BR1 22 Oct 11:38:08 11:42:22 81° 78° (ENE) 11:46:36 145.865
ESTCUBE 1 22 Oct 11:40:44 11:44:45 33° 282° (WNW) 11:48:49 437.505/2401.250
NO-84 22 Oct 11:43:08 11:46:18 77° 237° (WSW) 11:49:15 435.350 FM
DUCHIFAT 1 22 Oct 11:47:44 11:51:57 87° 259° (WSW) 11:56:10 145.980
BUGSAT 1 22 Oct 11:49:23 11:51:43 15° 78° (ENE) 11:54:03 437.445
SPROUT 22 Oct 11:57:16 12:01:30 67° 102° (ESE) 12:05:44 437.525
Oscar 19 22 Oct 12:17:53 12:21:21 18° 77° (ENE) 12:24:46 437.125/150
DX 1 22 Oct 12:23:15 12:25:31 14° 103° (ESE) 12:27:47 434.975-435.025
M-CUBED/EXP-1 PRIME 22 Oct 12:30:38 12:32:31 14° 76° (ENE) 12:34:21 437.505
JUGNU 22 Oct 12:36:31 12:42:22 80° 203° (SSW) 12:48:16 437.505
UKube-1 22 Oct 12:42:54 12:45:15 14° 103° (ESE) 12:47:35 .
VELOX 1 22 Oct 12:58:03 13:01:50 28° 282° (WNW) 13:05:38 145.980
Gurwin Techsat 1B 22 Oct 13:03:59 13:08:59 42° 78° (ENE) 13:13:57 435.225
50 SAT 22 Oct 13:13:52 13:17:05 61° 282° (WNW) 13:20:21 437.505
SRMSAT 22 Oct 13:14:53 13:20:03 30° 19° (NNE) 13:25:13 437.500
BUGSAT 1 22 Oct 13:23:45 13:26:47 20° 258° (WSW) 13:29:50 437.445
